Weather in Mullingar

Ireland     53°31′33″N   7°20′16″W
temp.,
°C
wind,
m/s
gust,
m/s
humid.,
%
clouds,
%
prec.,
mm/h
press.,
hPa
HPBL,
m
27 november, sat
sat2700:00+4nnw10216182 0.0 10071789
03:00+3nnw9195816 0.0 10081718
06:00+3nnw9196495 0.0 10111769
09:00+3nnw817635 0.0 10141410
12:00+4nnw71472100 0.0 10151382
15:00+4nnw6127652 0.1 10151211
18:00+2nnw51281100 0.1 1016778
21:00+2nw41081100 0.0 1016409
28 november, sun
sun2800:00+1wnw3788100 0.0 1016156
03:00+1wnw3795100 0.0 1014170
06:00+2wnw3596100 0.0 1013296
09:00+2wsw2399100 0.2 1013284
12:00+2s2399100 0.7 1012339
15:00+2s2399100 0.3 1011178
18:00+3s1299100 0.3 101296
21:00+3n119897 0.0 101354
29 november, mon
mon2900:00+3nw2297100 0.0 101375
03:00+3w239699 0.0 101455
06:00+4sw2395100 0.1 101395
09:00+5wsw3997100 0.3 1014307
12:00+9wnw41091100 0.3 1014477
15:00+9wnw5119222 0.0 1015589
18:00+8w5139491 0.0 1016608
21:00+9w61295100 0.0 1016703
30 november, tue
tue3000:00+9w61295100 0.0 1016778
03:00+9w61291100 0.0 1016609
06:00+10w61295100 0.1 1015737
09:00+9w5139589 0.0 1015618
12:00+10wsw61189100 0.0 1013919
15:00+10wsw61394100 1.1 1009804
18:00+9sw61497100 3.4 1005877
21:00+9w51095100 7.7 1002563
1 december, wed
wed100:00+8nw5118830 8.7 1003783
03:00+7wnw6139352 0.0 1003754
06:00+5wnw614885 0.0 1003688
09:00+5w5108764 0.0 1003778
12:00+6wnw61188100 0.2 1003897
15:00+6nw7128397 0.4 10031023
18:00+5wnw5119271 0.5 1003430
21:00+5nw6128394 0.0 1006710